TimeEDT,TemperatureF,Dew PointF,Humidity,Sea Level PressureIn,VisibilityMPH,Wind Direction,Wind SpeedMPH,Gust SpeedMPH,PrecipitationIn,Events,Conditions,WindDirDegrees,DateUTC
12:53 AM,71.1,68.0,90,30.15,10.0,Calm,Calm,-,N/A,,Clear,0,2013-08-21 04:53:00
1:53 AM,71.1,68.0,90,30.14,8.0,Calm,Calm,-,N/A,,Clear,0,2013-08-21 05:53:00
2:53 AM,70.0,68.0,93,30.14,5.0,Calm,Calm,-,N/A,,Overcast,0,2013-08-21 06:53:00
3:53 AM,69.1,68.0,96,30.13,7.0,Calm,Calm,-,N/A,,Clear,0,2013-08-21 07:53:00
4:24 AM,68.0,66.2,94,30.17,2.5,Calm,Calm,-,N/A,,Clear,0,2013-08-21 08:24:00
4:32 AM,68.0,66.2,94,30.17,5.0,Calm,Calm,-,N/A,,Clear,0,2013-08-21 08:32:00
4:39 AM,68.0,66.2,94,30.17,2.5,Calm,Calm,-,N/A,,Scattered Clouds,0,2013-08-21 08:39:00
4:45 AM,68.0,66.2,94,30.17,1.5,Calm,Calm,-,N/A,,Mostly Cloudy,0,2013-08-21 08:45:00
4:49 AM,68.0,66.2,94,30.17,2.0,Calm,Calm,-,N/A,,Mostly Cloudy,0,2013-08-21 08:49:00
4:53 AM,68.0,66.9,96,30.13,2.5,Calm,Calm,-,N/A,,Mostly Cloudy,0,2013-08-21 08:53:00
5:00 AM,68.0,66.2,94,30.17,3.0,Calm,Calm,-,N/A,,Mostly Cloudy,0,2013-08-21 09:00:00
5:46 AM,68.0,66.2,94,30.18,1.8,Calm,Calm,-,N/A,,Scattered Clouds,0,2013-08-21 09:46:00
5:51 AM,66.2,66.2,100,30.18,0.8,Calm,Calm,-,N/A,,Scattered Clouds,0,2013-08-21 09:51:00
5:53 AM,66.9,66.0,97,30.14,0.8,Calm,Calm,-,N/A,,Scattered Clouds,0,2013-08-21 09:53:00
6:00 AM,66.2,66.2,100,30.18,1.2,Calm,Calm,-,N/A,,Mostly Cloudy,0,2013-08-21 10:00:00
6:07 AM,68.0,66.2,94,30.18,2.5,Calm,Calm,-,N/A,,Mostly Cloudy,0,2013-08-21 10:07:00
6:14 AM,68.0,66.2,94,30.18,7.0,Calm,Calm,-,N/A,,Scattered Clouds,0,2013-08-21 10:14:00
6:31 AM,68.0,66.2,94,30.19,10.0,Calm,Calm,-,N/A,Thunderstorm,Partly Cloudy,0,2013-08-21 10:31:00
6:46 AM,66.2,66.2,100,30.21,2.0,Calm,Calm,-,0.01,Rain-Thunderstorm,Light Thunderstorms and Rain,0,2013-08-21 10:46:00
6:49 AM,66.2,66.2,100,30.22,0.8,SW,4.6,-,0.01,Rain-Thunderstorm,Light Thunderstorms and Rain,230,2013-08-21 10:49:00
6:53 AM,66.9,66.0,97,30.17,0.5,SE,6.9,-,0.14,Fog-Rain-Thunderstorm,Heavy Thunderstorms and Rain,140,2013-08-21 10:53:00
7:03 AM,66.2,66.2,100,30.20,1.8,Calm,Calm,-,0.36,Rain-Thunderstorm,Light Thunderstorms and Rain,0,2013-08-21 11:03:00
7:05 AM,66.2,66.2,100,30.20,3.0,Calm,Calm,-,0.36,Rain-Thunderstorm,Light Thunderstorms and Rain,0,2013-08-21 11:05:00
7:23 AM,69.8,66.2,88,30.21,6.0,Calm,Calm,-,0.36,Rain,Light Rain,0,2013-08-21 11:23:00
7:30 AM,68.0,66.2,94,30.21,4.0,Calm,Calm,-,0.36,Rain-Thunderstorm,Light Rain,0,2013-08-21 11:30:00
7:51 AM,68.0,66.2,94,30.22,1.5,Calm,Calm,-,0.36,Thunderstorm,Mostly Cloudy,0,2013-08-21 11:51:00
7:53 AM,68.0,66.9,96,30.18,0.8,Calm,Calm,-,0.36,Thunderstorm,Mostly Cloudy,0,2013-08-21 11:53:00
8:01 AM,68.0,66.2,94,30.22,1.0,Calm,Calm,-,N/A,Thunderstorm,Mostly Cloudy,0,2013-08-21 12:01:00
8:03 AM,68.0,66.2,94,30.22,3.0,Calm,Calm,-,N/A,Thunderstorm,Mostly Cloudy,0,2013-08-21 12:03:00
8:28 AM,69.8,68.0,94,30.23,8.0,Calm,Calm,-,N/A,,Mostly Cloudy,0,2013-08-21 12:28:00
8:44 AM,69.8,68.0,94,30.23,9.0,Calm,Calm,-,N/A,,Overcast,0,2013-08-21 12:44:00
8:53 AM,70.0,68.0,93,30.20,10.0,Calm,Calm,-,N/A,,Overcast,0,2013-08-21 12:53:00
9:36 AM,73.4,69.8,88,30.24,10.0,Calm,Calm,-,N/A,,Scattered Clouds,0,2013-08-21 13:36:00
9:53 AM,73.0,69.1,87,30.20,10.0,Calm,Calm,-,N/A,,Scattered Clouds,0,2013-08-21 13:53:00
10:32 AM,75.2,69.8,83,30.24,10.0,Variable,3.5,-,N/A,,Partly Cloudy,0,2013-08-21 14:32:00
10:53 AM,75.9,71.1,85,30.20,10.0,Calm,Calm,-,N/A,,Mostly Cloudy,0,2013-08-21 14:53:00
11:37 AM,77.0,71.6,83,30.23,10.0,Calm,Calm,-,N/A,,Mostly Cloudy,0,2013-08-21 15:37:00
11:44 AM,78.8,71.6,78,30.23,10.0,Calm,Calm,-,N/A,,Scattered Clouds,0,2013-08-21 15:44:00
11:53 AM,80.1,71.1,74,30.19,10.0,Calm,Calm,-,N/A,,Mostly Cloudy,0,2013-08-21 15:53:00
12:02 PM,77.0,69.8,78,30.23,10.0,Calm,Calm,-,N/A,,Mostly Cloudy,0,2013-08-21 16:02:00
12:17 PM,80.6,69.8,70,30.23,10.0,Calm,Calm,-,N/A,,Scattered Clouds,0,2013-08-21 16:17:00
12:53 PM,82.0,71.1,69,30.18,10.0,WNW,3.5,-,N/A,,Mostly Cloudy,290,2013-08-21 16:53:00
1:00 PM,80.6,71.6,74,30.22,10.0,Calm,Calm,-,N/A,,Mostly Cloudy,0,2013-08-21 17:00:00
1:09 PM,80.6,69.8,70,30.22,10.0,Calm,Calm,-,N/A,,Scattered Clouds,0,2013-08-21 17:09:00
1:53 PM,82.9,70.0,65,30.15,10.0,Calm,Calm,-,N/A,,Scattered Clouds,0,2013-08-21 17:53:00
2:53 PM,81.0,69.1,67,30.13,10.0,Calm,Calm,-,N/A,,Partly Cloudy,0,2013-08-21 18:53:00
3:53 PM,81.0,71.1,72,30.15,10.0,WSW,5.8,-,N/A,,Partly Cloudy,250,2013-08-21 19:53:00
4:03 PM,80.6,71.6,74,30.18,10.0,Variable,3.5,-,N/A,Thunderstorm,Thunderstorm,0,2013-08-21 20:03:00
4:29 PM,64.4,60.8,88,30.19,2.0,NNW,19.6,42.6,0.01,Rain-Thunderstorm,Thunderstorms and Rain,330,2013-08-21 20:29:00
4:32 PM,62.6,59.0,88,30.21,1.5,NNW,20.7,42.6,0.02,Rain-Thunderstorm,Thunderstorms and Rain,330,2013-08-21 20:32:00
4:42 PM,62.6,59.0,88,30.22,0.8,NNW,16.1,29.9,0.12,Rain-Thunderstorm,Heavy Thunderstorms and Rain,340,2013-08-21 20:42:00
4:51 PM,62.6,60.8,94,30.20,1.0,WSW,3.5,21.9,0.30,Rain-Thunderstorm,Thunderstorms and Rain,240,2013-08-21 20:51:00
4:53 PM,62.1,61.0,96,30.17,1.2,Calm,Calm,-,0.31,Rain-Thunderstorm,Thunderstorms and Rain,0,2013-08-21 20:53:00
4:59 PM,62.6,60.8,94,30.19,3.0,Variable,3.5,-,0.01,Rain-Thunderstorm,Light Thunderstorms and Rain,0,2013-08-21 20:59:00
5:10 PM,62.6,62.6,100,30.18,0.5,Variable,3.5,-,0.01,Fog-Rain-Thunderstorm,Light Rain,0,2013-08-21 21:10:00
5:17 PM,62.6,62.6,100,30.18,0.2,Variable,3.5,-,0.01,Fog-Rain,Light Rain,0,2013-08-21 21:17:00
5:26 PM,64.4,62.6,94,30.18,1.8,Calm,Calm,-,0.01,Rain,Light Rain,0,2013-08-21 21:26:00
5:33 PM,64.4,62.6,94,30.17,2.5,Calm,Calm,-,0.01,,Mostly Cloudy,0,2013-08-21 21:33:00
5:35 PM,64.4,62.6,94,30.16,4.0,Calm,Calm,-,0.01,,Mostly Cloudy,0,2013-08-21 21:35:00
5:42 PM,66.2,64.4,94,30.16,3.0,Calm,Calm,-,0.01,,Mostly Cloudy,0,2013-08-21 21:42:00
5:49 PM,66.2,64.4,94,30.16,5.0,Calm,Calm,-,0.01,,Scattered Clouds,0,2013-08-21 21:49:00
5:53 PM,66.9,64.9,93,30.12,10.0,Calm,Calm,-,0.01,,Scattered Clouds,0,2013-08-21 21:53:00
6:53 PM,69.1,64.9,87,30.12,10.0,Variable,3.5,-,N/A,,Clear,0,2013-08-21 22:53:00
7:53 PM,68.0,64.0,87,30.14,10.0,Calm,Calm,-,N/A,,Clear,0,2013-08-21 23:53:00
8:53 PM,66.0,63.0,90,30.14,10.0,East,3.5,-,N/A,,Mostly Cloudy,80,2013-08-22 00:53:00
9:53 PM,66.9,64.0,90,30.14,10.0,SSE,4.6,-,N/A,,Clear,150,2013-08-22 01:53:00
10:53 PM,66.0,64.0,93,30.14,10.0,Calm,Calm,-,N/A,,Clear,0,2013-08-22 02:53:00
11:53 PM,64.9,64.0,97,30.14,10.0,Calm,Calm,-,N/A,,Clear,0,2013-08-22 03:53:00